Regional Weather Roundup
Issued by NWS

Home | Current Version | Previous Version | Graphics & Text | Print | Product List | Glossary On
Versions: 1 2 3 4 5 6 7 8 9 10 11 12 13 14 15 16 17 18 19 20 21 22 23 24 25 26 27 28 29 30 31 32 33 34 35 36 37 38 39 40 41 42 43 44 45 46 47 48 49 50
300
ASUS43 KBIS 080710
RWRND

NORTH DAKOTA REGIONAL WEATHER ROUNDUP
NATIONAL WEATHER SERVICE BISMARCK ND
100 AM CST MON FEB 08 2016

NOTE: "FAIR" INDICATES FEW OR NO CLOUDS BELOW 12,000 FEET WITH NO
SIGNIFICANT WEATHER AND/OR OBSTRUCTIONS TO VISIBILITY.


NDZ001>003-009>011-017-080800-
NORTHWEST NORTH DAKOTA

CITY           SKY/WX    TMP DP  RH WIND       PRES   REMARKS
WILLISTON      CLEAR     26  18  71 NW23      30.31R WCI  11
MINOT          FLURRIES  28  17  63 NW26G35   30.18S WCI  13
MINOT AFB      CLEAR     26  20  79 NW23G32   30.18R WCI  11
$$

NDZ018>021-031>035-040>046-080800-
SOUTHWEST NORTH DAKOTA

CITY           SKY/WX    TMP DP  RH WIND       PRES   REMARKS
BISMARCK       PTCLDY    29  17  61 NW25G38   30.19R WCI  14
DICKINSON      CLEAR     21  14  74 NW12      30.26R WCI   9
GARRISON         N/A     24  18  77 NW23      30.19S WCI   9
HETTINGER ARPT CLEAR     24  15  68 NW18G26   30.27R WCI  10
$$

NDZ004>008-012>016-024-026-027-054-080800-
NORTHEAST NORTH DAKOTA

CITY           SKY/WX    TMP DP  RH WIND       PRES   REMARKS
GRAND FORKS    LGT SNOW  15  10  80 N35G44    30.05S BLWGSNOWWCI  -7
GRND FRKS AFB  LGT SNOW  14   9  79 N25G40    30.07R WCI  -5
DEVILS LAKE    FLURRIES  18  14  84 N18       30.10R WCI   2
$$

NDZ022-023-025-028>030-036>039-047>053-080800-
SOUTHEAST NORTH DAKOTA

CITY           SKY/WX    TMP DP  RH WIND       PRES   REMARKS
FARGO          LGT SNOW  14  10  84 N28G38    30.04R VSB 3/4 WCI  -6
JAMESTOWN      CLOUDY    20  14  77 N26G37    30.06R WCI   2
$$





USA.gov is the U.S. government's official web portal to all federal, state and local government web resources and services.